www.pogodaiklimat.ru

Погода и климат >> Архив погоды >> Австралия >> Richmond Airport


ПОГОДА в Richmond Airport

  • Прогноз погоды в Richmond Airport
  • Монитор погоды в Richmond Airport
  • Климат города

АРХИВ ПОГОДЫ в Richmond Airport

Время (UTC), дата Ветер
(напр.,м/с)
 
Видим.   Явления Облачность Т
(С)
Тd
(С)
f
(%)
Тe
(С)
Тes
(С)
Комфортность P
(гПа)
Po
(гПа)
Тmin
(С)
Tmax
(С)
R
(мм)
R24
(мм)
S
(см)
23 18.02 СЗ 7 н/о н/о +32.3 +22.4 56 +42 +42 опасность
перегрева
1008.7 985.6
00 19.02 СЗ 8 н/о н/о +35.1 +21.7 46 +43 +43 опасность
перегрева
1008.2 985.2
02 19.02 З 7 н/о 3/3 1500 м
[]
+38.1 +19.5 34 +43 +48 опасность
перегрева
1006.6 983.6 +25.2
03 19.02 СЗ 8 н/о н/о +37.8 +18.7 33 +42 +42 опасность
перегрева
1004.9 981.9
05 19.02 С 6 н/о 1/0
[]
+36.7 +16.8 31 +39 +45 очень
душно
1002.8 979.9
06 19.02 ЮЗ 13 н/о н/о +31.4 +17.3 43 +35 +35 очень
душно
1003.2 980.3
08 19.02 С 10 н/о н/о +28.8 +18.0 52 +33 +33 очень
душно
1003.9 981.0
09 19.02 С 7 н/о н/о +29.3 +16.8 47 +33 +33 душно 1004.5 981.5
11 19.02 С 5 н/о {туман} 4/0
[]
+26.4 +19.5 66 +32 +32 очень
душно
1004.4 981.4
12 19.02 С 5 н/о н/о +25.9 +20.0 70 +32 +32 очень
душно
1004.5 981.5
14 19.02 СВ 5 н/о 10/0
[]
+26.4 +20.0 68 +32 +32 очень
душно
1005.8 982.8 +40.2
15 19.02 С 5 н/о н/о +25.8 +19.9 70 +32 +32 очень
душно
1004.3 981.3
17 19.02 СЗ 5 н/о {туман} 3/0
[]
+25.3 +19.7 71 +31 +31 очень
душно
1003.2 980.3
18 19.02 С 5 н/о н/о +25.3 +20.3 74 +31 +31 очень
душно
1003.4 980.5
20 19.02 С 5 н/о 10/0
[]
+25.3 +21.0 77 +32 +32 очень
душно
1005.5 982.5
21 19.02 С 5 н/о н/о +25.8 +21.5 77 +33 +33 очень
душно
1006.5 983.5
23 19.02 СЗ 8 н/о 1/0
[]
+29.6 +24.0 72 +41 +42 опасность
перегрева
1006.7 983.7
00 20.02 СЗ 9 н/о н/о +32.0 +22.1 56 +41 +41 опасность
перегрева
1006.1 983.1
02 20.02 СЗ 10 н/о н/о +36.4 +18.5 35 +41 +41 опасность
перегрева
1004.0 981.1 +24.6
03 20.02 СЗ 9 н/о н/о +38.1 +19.0 33 +43 +43 опасность
перегрева
1002.8 979.9
05 20.02 СЗ 9 н/о 6/0 2000 м
[]
+39.5 +17.6 28 +42 +44 опасность
перегрева
1000.2 977.3
06 20.02 СЗ 7 н/о н/о +40.5 +18.4 28 +44 +44 опасность
перегрева
999.2 976.4
08 20.02 С 14 н/о н/о +29.9 +19.6 54 +36 +36 очень
душно
997.8 975.0
09 20.02 СЗ 14 н/о н/о +25.5 +18.9 67 +30 +30 душно 1000.5 977.6
11 20.02 СЗ 6 н/о н/о +27.8 +21.6 69 +36 +36 очень
душно
1001.2 978.3
12 20.02 С 5 н/о н/о +27.8 +21.3 68 +35 +35 очень
душно
1002.5 979.6
14 20.02 С 6 н/о н/о +26.2 +19.8 68 +32 +32 очень
душно
1002.1 979.2 +41.6
15 20.02 С 5 н/о н/о +26.0 +21.0 74 +33 +33 очень
душно
1001.6 978.7
17 20.02 С 5 н/о 1/0
[]
+25.6 +21.3 77 +32 +32 очень
душно
1000.9 978.0
18 20.02 С 5 н/о н/о +25.3 +21.4 79 +32 +32 очень
душно
1000.8 977.9
20 20.02 СЗ 6 н/о 9/0
[]
+25.3 +22.0 82 +33 +33 очень
душно
1001.3 978.4
21 20.02 СЗ 6 н/о н/о +26.0 +22.3 80 +34 +34 очень
душно
1001.8 978.9
23 20.02 СЗ 7 н/о 1/1 600 м
[]
+30.3 +22.2 62 +39 +41 очень
душно
1002.7 979.8
00 21.02 СЗ 8 н/о н/о +31.8 +21.3 54 +40 +40 очень
душно
1002.0 979.1
02 21.02 СЗ 7 н/о 1/1 1000 м
[]
+34.1 +19.0 41 +39 +44 очень
душно
1001.2 978.3 +24.8
03 21.02 З 7 н/о н/о +36.8 +16.9 31 +39 +39 очень
душно
1000.4 977.5
05 21.02 СЗ 6 н/о н/о +41.1 +8.3 14 +39 +39 очень
жарко
997.9 975.1
06 21.02 З 7 н/о н/о +41.4 +9.6 15 +40 +40 очень
жарко
996.9 974.1
08 21.02 Ю 6 н/о н/о +39.3 +8.9 16 +37 +37 очень
жарко
996.7 973.9
09 21.02 ЮЗ 7 н/о н/о +37.2 +8.1 17 +35 +35 очень
жарко
997.3 974.5
11 21.02 В 9 н/о н/о +31.3 +18.3 46 +36 +36 очень
душно
1000.1 977.2
12 21.02 В 7 н/о н/о +29.0 +17.5 50 +33 +33 очень
душно
1001.6 978.7
14 21.02 В 7 н/о н/о +26.6 +18.5 61 +31 +31 душно 1001.6 978.7 +42.0
15 21.02 СВ 4 н/о н/о +26.6 +18.2 60 +31 +31 душно 1002.0 979.1
17 21.02 СВ 6 н/о н/о +25.7 +20.3 72 +32 +32 очень
душно
1001.2 978.3
18 21.02 В 3 н/о н/о +24.9 +19.9 74 +30 +30 душно 1001.0 978.1
20 21.02 СВ 3 н/о 8/8 600 м
[]
+24.8 +19.2 71 +30 +30 душно 1002.6 979.7
21 21.02 В 4 н/о н/о +23.7 +18.4 72 +28 +28 душно 1003.3 980.4
23 21.02 СВ 3 н/о 4/4 1000 м
[]
+28.5 +18.6 55 +34 +38 очень
душно
1003.8 980.9
00 22.02 С 5 н/о н/о +30.5 +19.2 51 +36 +36 очень
душно
1003.6 980.7
02 22.02 С 4 н/о 3/3 1000 м
[]
+33.0 +19.8 46 +39 +50 очень
душно
1002.5 979.6 +23.6
03 22.02 С 5 н/о н/о +33.8 +18.7 41 +39 +39 очень
душно
1001.4 978.5
05 22.02 СЗ 10 н/о 10/10 1500 м
[]
+34.6 +19.4 41 +40 +40 очень
душно
1000.2 977.3
06 22.02 СВ 6 н/о н/о +28.0 +22.0 70 +36 +36 очень
душно
1000.2 977.3
08 22.02 СВ 5 н/о 10/0
[]
+28.2 +22.0 69 +36 +37 очень
душно
1001.2 978.3
09 22.02 СВ 5 н/о н/о +27.4 +21.2 69 +35 +35 очень
душно
1002.1 979.2
11 22.02 СВ 5 н/о 9/0 2000 м
[]
+25.0 +21.5 81 +32 +32 очень
душно
1003.9 981.0
12 22.02 С 7 н/о н/о +25.0 +20.3 75 +31 +31 очень
душно
1003.1 980.2
14 22.02 В 3 н/о 10/0
[]
+24.5 +20.2 77 +30 +30 очень
душно
1003.9 981.0 +36.8
15 22.02 В 2 н/о н/о +24.5 +20.2 77 +30 +30 очень
душно
1003.5 980.6
17 22.02 СВ 3 н/о 9/0
[]
+24.3 +19.8 76 +30 +30 очень
душно
1002.7 979.8
18 22.02 СВ 3 н/о н/о +24.5 +20.0 76 +30 +30 очень
душно
1003.2 980.3
20 22.02 С 3 н/о 10/10 1500 м
[]
+24.3 +20.8 81 +30 +30 очень
душно
1004.3 981.3
21 22.02 С 1 н/о н/о +24.8 +21.1 80 +31 +31 очень
душно
1004.9 981.9
23 22.02 С 7 н/о 5/5 600 м
[]
+28.2 +21.0 65 +35 +37 очень
душно
1005.7 982.7
00 23.02 С 7 н/о н/о +29.0 +20.7 61 +36 +36 очень
душно
1005.6 982.6
02 23.02 СЗ 5 н/о 9/9 1500 м
[]
+31.3 +19.9 51 +38 +39 очень
душно
1004.7 981.7 +24.3
03 23.02 СЗ 5 н/о н/о +32.4 +18.9 45 +38 +38 очень
душно
1003.5 980.6
05 23.02 З 5 н/о 1/1 1500 м
[]
+35.1 +17.3 35 +38 +45 очень
душно
1001.7 978.8
06 23.02 З 4 н/о н/о +35.9 +18.5 36 +40 +40 очень
душно
1001.0 978.1
08 23.02 ЮВ 12 н/о 10/0 2000 м
[]
+28.1 +21.1 66 +35 +35 очень
душно
1002.5 979.6
09 23.02 СВ 6 н/о н/о +26.1 +21.5 76 +33 +33 очень
душно
1003.3 980.4
11 23.02 СВ 6 н/о 10/0
[]
+24.9 +21.8 83 +32 +32 очень
душно
1004.5 981.5
12 23.02 СВ 5 н/о н/о +24.9 +21.2 80 +31 +31 очень
душно
1006.3 983.3
14 23.02 ЮВ 3 2000 м дождь {туман} 10/10 300 м
[]
+22.9 +22.6 98 +31 +31 очень
душно
1007.2 984.2 +36.5
15 23.02 СВ 3 н/о н/о +23.3 +22.5 95 +32 +32 очень
душно
1006.2 983.2
17 23.02 СВ 3 н/о {туман} 10/0 2000 м
[]
+23.5 +22.5 94 +31 +31 очень
душно
1004.4 981.4
18 23.02 С 4 н/о н/о +23.3 +22.3 94 +32 +32 очень
душно
1004.3 981.3
20 23.02 С 2 н/о 10/0
[]
+23.7 +22.7 94 +31 +31 очень
душно
1005.6 982.6
21 23.02 В 3 н/о н/о +24.1 +22.9 93 +32 +32 очень
душно
1006.6 983.6
23 23.02 С 5 н/о 10/10 300 м
[]
+26.0 +23.1 84 +35 +35 очень
душно
1007.7 984.7
00 24.02 С 5 н/о н/о +27.2 +22.8 77 +36 +36 очень
душно
1008.0 985.0
02 24.02 С 6 н/о {туман} 10/10 600 м
[]
+30.8 +22.9 63 +41 +41 опасность
перегрева
1006.7 983.7 +22.6
03 24.02 СЗ 4 н/о н/о +31.1 +22.4 60 +40 +40 очень
душно
1005.7 982.7
05 24.02 СЗ 7 н/о {туман} 8/8 1000 м
[]
+33.2 +20.4 47 +40 +41 очень
душно
1003.3 980.4
06 24.02 СЗ 6 н/о н/о +33.7 +20.1 45 +40 +40 очень
душно
1003.2 980.3
08 24.02 СЗ 5 н/о 10/10 1500 м
[]
+33.1 +19.9 46 +39 +39 очень
душно
1003.5 980.6
09 24.02 С 4 н/о н/о +28.2 +22.0 69 +36 +36 очень
душно
1004.3 981.3
11 24.02 З 5 н/о 10/10 1500 м
[]
+28.2 +21.7 68 +36 +36 очень
душно
1006.1 983.1
12 24.02 З 4 н/о н/о +25.3 +20.3 74 +31 +31 очень
душно
1006.9 983.9
14 24.02 С 1 н/о ливневой дождь {туман} 5/0 2000 м
[]
+23.5 +21.4 88 +30 +30 очень
душно
1006.4 983.4 +35.5
15 24.02 СЗ 6 н/о н/о +22.9 +20.8 88 +30 +30 очень
душно
1005.6 982.6
17 24.02 С 5 н/о дождь {туман} 10/10 300 м
[]
+22.3 +20.9 92 +29 +29 очень
душно
1006.1 983.1
18 24.02 СЗ 6 н/о н/о +21.8 +20.6 93 +28 +28 душно 1006.1 983.1
20 24.02 СЗ 5 н/о {туман} 10/0
[]
+21.6 +20.4 93 +27 +27 душно 1005.8 982.8
21 24.02 З 5 н/о н/о +21.9 +20.7 93 +28 +28 душно 1005.5 982.5
23 24.02 С 4 н/о {туман} 3/0
[]
+25.0 +21.3 80 +32 +37 очень
душно
1006.8 983.8
00 25.02 СЗ 3 н/о н/о +26.7 +20.5 69 +33 +33 очень
душно
1006.6 983.6
02 25.02 З 4 н/о 6/6 600 м
[]
+30.3 +20.8 57 +38 +44 очень
душно
1006.1 983.1 +21.5
03 25.02 З 4 н/о н/о +31.4 +21.3 55 +39 +39 очень
душно
1005.5 982.5
05 25.02 З 7 н/о н/о +33.3 +21.1 49 +41 +41 опасность
перегрева
1002.7 979.8
06 25.02 З 6 н/о н/о +33.8 +20.6 46 +41 +41 опасность
перегрева
1002.1 979.2
08 25.02 З 7 н/о н/о +31.6 +20.5 52 +39 +39 очень
душно
1003.0 980.1
09 25.02 З 4 н/о н/о +27.1 +23.3 80 +37 +37 очень
душно
1003.6 980.7
11 25.02 В 3 н/о {туман} 10/0
[]
+26.7 +21.5 73 +34 +34 очень
душно
1006.1 983.1
12 25.02 В 5 н/о н/о +25.7 +20.9 75 +32 +32 очень
душно
1006.2 983.2
14 25.02 СВ 3 н/о 9/0
[]
+25.1 +20.4 75 +31 +31 очень
душно
1005.8 982.8 +35.0
15 25.02 СЗ 2 н/о н/о +24.5 +20.8 80 +31 +31 очень
душно
1005.3 982.3
17 25.02 С 3 н/о 1/0
[]
+24.0 +21.1 84 +30 +30 очень
душно
1004.8 981.8
18 25.02 С 3 н/о н/о +24.1 +21.8 87 +31 +31 очень
душно
1004.8 981.8
20 25.02 С 3 н/о 8/0
[]
+24.4 +22.5 89 +32 +32 очень
душно
1005.1 982.1
21 25.02 СЗ 5 н/о н/о +24.9 +22.6 87 +33 +33 очень
душно
1005.1 982.1
23 25.02 З 8 н/о 1/1 300 м
[]
+28.4 +22.4 70 +37 +39 очень
душно
1006.2 983.2

 

Местоположение метеостанции Richmond Airport (Квинсленд, Австралия): широта -20.70 долгота 143.11 высота над уровнем моря 207 м.

В архиве по умолчанию представлена погода в Richmond Airport за последнюю неделю. Архивные данные за месяц целиком и за предыдущие месяцы, начиная с января 2011 года, Вы можете получить, выбрав интересующий диапазон дат из раскрывающегося списка и нажав кнопку "Ввод!".

Внимание! Время в таблицах - всемирное. Для получения местного времени необходимо прибавить поправку, которая в Richmond Airport равна 10 ч.

Смотрите также архив погоды в соседних городах и на ближайших метеорологических станциях:

Погода в Hughenden Airport (Квинсленд, Австралия) (117 км)
Погода в Julia Creek Airport (Квинсленд, Австралия) (144 км)
Погода в Winton Airport (Квинсленд, Австралия) (186 км)
Погода в Trepell Airport (Квинсленд, Австралия) (263 км)
Погода в Georgetown Airport (Квинсленд, Австралия) (271 км)
Погода в Cloncurry Composite (Квинсленд, Австралия) (272 км)
Погода в Longreach Airport (Квинсленд, Австралия) (327 км)
Погода в Phosphate Hill Airport (Квинсленд, Австралия) (353 км)
Погода в Lake Julius Aws (Квинсленд, Австралия) (358 км)
Погода в Mount Isa (Квинсленд, Австралия) (378 км)

Пояснения к столбцам:

Ветер - указаны скорость ветра в м/с - средняя за 10 мин, порывы в срок и между сроками (в фигурных скобках) и направление, откуда дует ветер: С - северный, СВ - северо-восточный, В - восточный, ЮВ - юго-восточный, Ю - южный, ЮЗ - юго-западный, З - западный, СЗ - северо-западный.
Видимость - горизонтальная дальность видимости в метрах или километрах. При видимости от 1 до 10 км при отсутствии осадков обычно наблюдается дымка, при ухудшении видимости до 1 км и менее - туман. В сухую погоду видимость может ухудшаться дымом, пылью или мглою.
Явления - указаны атмосферные явления, наблюдавшиеся в срок или в последний час перед сроком; фигурными скобками обозначены явления, наблюдавшиеся между сроками (за 1-3 часа до срока); квадратными скобками обозначены град или гололедные отложения с указанием их диаметра в мм.
Облачность - указаны через наклонную черту общая и нижняя облачность в баллах и высота нижней границы облаков в метрах; квадратными скобками обозначены формы облаков: Ci - перистые, Cs - перисто-слоистые, Cc - перисто-кучевые, Ac - высококучевые, As - высокослоистые, Sc - слоисто-кучевые, Ns - слоисто-дождевые, Cu - кучевые, Cb - кучево-дождевые. Подробнее классификацию облаков см. в Атласе облаков (PDF).
T - Температура воздуха - температура, измеренная на высоте 2 м над землей.
Td - Температура точки росы - температура, при понижении до которой содержащийся в воздухе водяной пар достигнет насыщения.
f - Относительная влажность воздуха - влажноcть воздуха, измеренная на высоте 2 м над землей.
Te - Эффективная температура - температура, которую ощущает одетый по сезону человек в тени. Характеристика душности погоды. При расчете учитывается влияние влажности воздуха и скорости ветра на теплоощущения человека.
Tes - Эффективная температура на солнце - температура, которую ощущает человек, с поправкой на солнечный нагрев. Характеристика знойности погоды. Зависит от высоты солнца над горизонтом, облачности и скорости ветра. Ночью, в пасмурную погоду, а также при ветре 12 м/с и более поправка равна нулю.
P - Атмосферное давление - приведенное к уровню моря атмосферное давление.
Po - Атмосферное давление - измеренное на уровне метеостанции атмосферное давление.
Tmin - Минимальная температура - минимум температуры воздуха на высоте 2 м над землей.
Tmax - Максимальная температура - максимум температуры воздуха на высоте 2 м над землей.
R - Количество осадков - Количество выпавших осадков за период времени, мм. При наведении курсора мыши на число - период времени, за который выпало указанное количество осадков.
R24 - Количество осадков - Количество выпавших осадков за 24 часа, мм.
S - Снежный покров - Высота снежного покрова, см. При наведении курсора мыши на число - состояние снежного покрова и степень покрытия местности в баллах.